sat.trackr.live / text

‹ back to catalog

HYDRA-2

NORAD 67389 · 2026-004AC

PAYLOAD ACTIVE UNKNOWN

§ Identity

Operator
Country
SPN
Launch date
2026-01-11
Launch site
AFWTR
Launch vehicle
Mass (kg)
RCS (m²)

External: N2YO · Heavens-Above · Gunter

§ Orbital elements

Epoch: 2026-09-20T12:24:35.529696Z

Period
94.78 min
Inclination
97.4649°
Eccentricity
0.0003954
Mean motion
15.19379307 rev/d
Perigee alt
505.0 km
Apogee alt
510.4 km
Semi-major
6,885.9 km
B*
1.2489e-4
RAAN
261.3984°
Arg perigee
32.2956°
Mean anomaly
327.8520°
Rev number
3,822

§ Raw data

HYDRA-21 67389U 26004AC  26263.51707789  .00002574  00000+0  12489-3 0  99922 67389  97.4649 261.3984 0003954  32.2956 327.8520 15.19379307 38222

JSON: /api/v1/satellites/67389 · /tle

For live sub-satellite position, see the globe view (requires WebGL).

§ Visibility from observer

Set your observer location to see the next 7 days of passes ≥ 10°. The values pass through the URL so the page stays shareable.

No JS? Fill the form by hand. The geolocation button needs JavaScript.